QPF
0.00 0.00 0.00 0.00 0.00 0.00 0.00 0.00 0.00 0.00 0.00 0.00 0.00 0.00 0.00 0.00 0.00 0.00 0.00 0.00 0.00 0.00 0.00 0.00 0.00 0.01 0.01 0.00 0.00 0.00 0.00 0.00 0.00 0.00 0.00 0.00 0.00 0.00 0.00 0.00 0.00 0.00 0.00 0.00 0.00 0.00 0.01 0.01 0.01
0.00 0.00 0.00 0.00 0.00 0.00 0.00 0.00 0.00 0.00 0.00 0.00 0.00 0.00 0.00 0.00 0.00 0.00 0.00 0.00 0.00 0.00 0.00 0.00 0.00 0.00 0.00 0.00 0.00 0.00 0.00 0.00 0.00 0.00 0.00 0.00 0.00 0.00 0.00 0.00 0.00 0.00 0.00 0.00 0.00 0.00 0.00 0.00 0.00
0.00 0.00 0.00 0.00 0.00 0.00 0.00 0.00 0.00 0.00 0.00 0.00 0.00 0.00 0.00 0.00 0.00 0.00 0.00 0.00 0.00 0.00 0.00 0.00 0.00 0.00 0.00 0.00 0.00 0.00 0.00 0.00 0.00 0.00 0.00 0.00 0.00 0.00 0.00 0.00 0.00 0.00 0.00 0.00 0.00 0.00 0.00 0.00 0.00
0.00 0.00 0.00 0.00 0.00 0.00 0.00 0.00 0.00 0.00 0.00 0.00 0.00 0.00 0.00 0.00 0.00 0.00 0.00 0.00 0.00 0.00 0.00 0.00 0.00 0.00 0.00 0.00 0.00 0.00 0.00 0.00 0.00 0.00 0.00 0.00 0.00 0.00 0.00 0.00 0.00 0.00 0.00 0.00 0.00 0.00 0.00 0.00 0.00
0.00 0.00 0.00 0.00 0.00 0.00 0.00 0.00 0.00 0.00 0.00 0.00 0.00 0.00 0.00 0.00 0.00 0.00 0.00 0.00 0.00 0.00 0.00 0.00 0.00 0.00 0.00 0.00 0.00 0.00 0.00 0.00 0.00 0.00 0.00 0.00 0.00 0.00 0.00 0.00 0.00 0.00 0.00 0.00 0.00 0.00 0.00 0.00 0.00
0.00 0.00 0.00 0.00 0.00 0.00 0.00 0.00 0.00 0.00 0.00 0.00 0.00 0.00 0.00 0.00 0.00 0.00 0.00 0.00 0.00 0.00 0.00 0.00 0.00 0.00 0.00 0.00 0.00 0.00 0.00 0.00 0.00 0.00 0.00 0.00 0.00 0.00 0.00 0.00 0.00 0.00 0.00 0.00 0.00 0.00 0.00 0.00 0.00
0.00 0.00 0.00 0.00 0.00 0.00 0.00 0.00 0.00 0.00 0.00 0.00 0.00 0.00 0.00 0.00 0.00 0.00 0.00 0.00 0.00 0.00 0.00 0.00 0.00 0.00 0.00 0.00 0.00 0.00 0.00 0.00 0.00 0.00 0.00 0.00 0.00 0.00 0.00 0.00 0.00 0.00 0.00 0.00 0.00 0.00 0.00 0.00 0.00
0.00 0.00 0.00 0.00 0.00 0.00 0.00 0.00 0.00 0.00 0.00 0.00 0.00 0.00 0.00 0.00 0.00 0.00 0.00 0.00 0.00 0.00 0.00 0.00 0.00 0.00 0.00 0.00 0.00 0.00 0.00 0.00 0.00 0.00 0.00 0.00 0.00 0.00 0.00 0.00 0.00 0.00 0.00 0.00 0.00 0.00 0.00 0.00 0.00
0.00 0.00 0.00 0.00 0.00 0.00 0.00 0.00 0.00 0.00 0.00 0.00 0.00 0.00 0.00 0.00 0.00 0.00 0.00 0.00 0.00 0.00 0.00 0.00 0.00 0.00 0.00 0.00 0.00 0.00 0.00 0.00 0.00 0.00 0.00 0.00 0.00 0.00 0.00 0.00 0.00 0.00 0.00 0.00 0.00 0.00 0.00 0.00 0.00
0.00 0.00 0.00 0.00 0.00 0.00 0.00 0.00 0.00 0.00 0.00 0.00 0.00 0.00 0.00 0.00 0.00 0.00 0.00 0.00 0.00 0.00 0.00 0.00 0.00 0.00 0.00 0.00 0.00 0.00 0.00 0.00 0.00 0.00 0.00 0.00 0.00 0.00 0.00 0.00 0.00 0.00 0.00 0.00 0.00 0.00 0.00 0.00 0.00
0.00 0.00 0.00 0.00 0.00 0.00 0.00 0.00 0.00 0.00 0.00 0.00 0.00 0.00 0.00 0.00 0.00 0.00 0.00 0.00 0.00 0.00 0.00 0.00 0.00 0.00 0.00 0.00 0.00 0.00 0.00 0.00 0.00 0.00 0.00 0.00 0.00 0.00 0.00 0.00 0.00 0.00 0.00 0.00 0.00 0.00 0.00 0.00 0.00
0.00 0.00 0.00 0.00 0.00 0.00 0.00 0.00 0.00 0.00 0.00 0.00 0.00 0.00 0.00 0.00 0.00 0.00 0.00 0.00 0.00 0.00 0.00 0.00 0.00 0.00 0.00 0.00 0.00 0.00 0.00 0.00 0.00 0.00 0.00 0.00 0.00 0.00 0.00 0.00 0.00 0.00 0.00 0.00 0.00 0.00 0.00 0.00 0.00
0.00 0.00 0.00 0.00 0.00 0.00 0.00 0.00 0.00 0.00 0.00 0.00 0.00 0.00 0.00 0.00 0.00 0.00 0.00 0.00 0.00 0.00 0.00 0.00 0.00 0.00 0.00 0.00 0.00 0.00 0.00 0.00 0.00 0.00 0.00 0.00 0.00 0.00 0.00 0.00 0.00 0.00 0.00 0.00 0.00 0.00 0.00 0.00 0.00
0.00 0.01 0.00 0.00 0.00 0.00 0.00 0.00 0.00 0.00 0.00 0.00 0.00 0.00 0.00 0.00 0.00 0.00 0.00 0.00 0.00 0.00 0.00 0.00 0.00 0.00 0.00 0.00 0.00 0.00 0.00 0.00 0.00 0.00 0.00 0.00 0.00 0.00 0.00 0.00 0.00 0.00 0.00 0.00 0.00 0.00 0.00 0.00 0.00
0.00 0.01 0.01 0.00 0.00 0.00 0.00 0.00 0.00 0.00 0.00 0.00 0.00 0.00 0.00 0.00 0.00 0.00 0.00 0.00 0.00 0.00 0.00 0.00 0.00 0.00 0.00 0.00 0.00 0.00 0.00 0.00 0.00 0.00 0.00 0.00 0.00 0.00 0.00 0.00 0.00 0.00 0.00 0.00 0.00 0.00 0.00 0.00 0.00
0.01 0.01 0.01 0.00 0.00 0.00 0.01 0.00 0.00 0.00 0.00 0.00 0.00 0.00 0.00 0.00 0.00 0.00 0.00 0.00 0.00 0.00 0.00 0.00 0.00 0.00 0.00 0.00 0.00 0.00 0.00 0.00 0.00 0.00 0.00 0.00 0.00 0.00 0.00 0.00 0.00 0.00 0.00 0.00 0.00 0.00 0.00 0.00 0.00
0.02 0.01 0.00 0.00 0.00 0.00 0.01 0.00 0.00 0.00 0.00 0.00 0.00 0.00 0.00 0.00 0.00 0.00 0.00 0.00 0.00 0.00 0.00 0.00 0.00 0.00 0.00 0.00 0.00 0.00 0.00 0.00 0.00 0.00 0.00 0.00 0.00 0.00 0.00 0.00 0.00 0.00 0.00 0.00 0.00 0.00 0.00 0.00 0.00
0.01 0.01 0.00 0.00 0.00 0.01 0.00 0.00 0.00 0.00 0.00 0.00 0.00 0.00 0.00 0.00 0.00 0.00 0.00 0.00 0.00 0.00 0.00 0.00 0.00 0.00 0.00 0.00 0.00 0.00 0.00 0.00 0.00 0.00 0.00 0.00 0.00 0.00 0.00 0.00 0.00 0.00 0.00 0.00 0.00 0.00 0.00 0.00 0.00
0.01 0.02 0.01 0.00 0.00 0.01 0.00 0.00 0.00 0.00 0.00 0.00 0.00 0.00 0.00 0.00 0.00 0.00 0.00 0.00 0.00 0.00 0.00 0.00 0.00 0.00 0.00 0.00 0.00 0.00 0.00 0.00 0.00 0.00 0.00 0.00 0.00 0.00 0.00 0.00 0.00 0.00 0.00 0.00 0.00 0.00 0.00 0.00 0.00
0.02 0.03 0.02 0.01 0.01 0.01 0.01 0.00 0.00 0.00 0.00 0.00 0.00 0.00 0.00 0.00 0.00 0.00 0.00 0.00 0.00 0.00 0.00 0.00 0.00 0.00 0.00 0.00 0.00 0.00 0.00 0.00 0.00 0.00 0.00 0.00 0.00 0.00 0.00 0.00 0.00 0.00 0.00 0.00 0.00 0.00 0.00 0.00 0.00
0.03 0.04 0.05 0.03 0.03 0.03 0.03 0.01 0.00 0.00 0.00 0.00 0.00 0.00 0.00 0.00 0.00 0.00 0.00 0.00 0.00 0.00 0.00 0.00 0.00 0.00 0.00 0.00 0.00 0.00 0.00 0.00 0.00 0.00 0.00 0.00 0.00 0.00 0.00 0.00 0.00 0.00 0.00 0.00 0.00 0.00 0.00 0.00 0.00
0.04 0.03 0.06 0.08 0.09 0.07 0.04 0.02 0.00 0.00 0.00 0.00 0.00 0.00 0.00 0.00 0.00 0.00 0.00 0.00 0.00 0.00 0.00 0.00 0.00 0.00 0.00 0.00 0.00 0.00 0.00 0.00 0.00 0.00 0.00 0.00 0.00 0.00 0.00 0.00 0.00 0.00 0.00 0.00 0.00 0.00 0.00 0.00 0.00
0.05 0.05 0.10 0.15 0.15 0.14 0.07 0.04 0.01 0.00 0.00 0.00 0.00 0.00 0.00 0.00 0.00 0.00 0.00 0.00 0.00 0.00 0.00 0.00 0.00 0.00 0.00 0.00 0.00 0.00 0.00 0.00 0.00 0.00 0.00 0.00 0.00 0.00 0.00 0.00 0.00 0.00 0.00 0.00 0.00 0.00 0.00 0.00 0.00
0.09 0.14 0.23 0.30 0.34 0.30 0.10 0.05 0.01 0.00 0.00 0.00 0.00 0.00 0.00 0.00 0.00 0.00 0.00 0.00 0.00 0.00 0.00 0.00 0.00 0.00 0.00 0.00 0.00 0.00 0.00 0.00 0.00 0.00 0.00 0.00 0.00 0.00 0.00 0.00 0.00 0.00 0.00 0.00 0.00 0.00 0.00 0.00 0.00
0.18 0.39 0.52 0.53 0.54 0.31 0.06 0.04 0.02 0.00 0.00 0.00 0.00 0.00 0.00 0.00 0.00 0.00 0.00 0.00 0.00 0.00 0.00 0.00 0.00 0.00 0.00 0.00 0.00 0.00 0.00 0.00 0.00 0.00 0.00 0.00 0.00 0.00 0.00 0.00 0.00 0.00 0.00 0.00 0.00 0.00 0.00 0.00 0.00
0.20 0.42 0.52 0.45 0.30 0.12 0.04 0.03 0.01 0.00 0.00 0.00 0.00 0.00 0.00 0.00 0.00 0.00 0.00 0.00 0.00 0.00 0.00 0.00 0.00 0.00 0.00 0.00 0.00 0.00 0.00 0.00 0.00 0.00 0.00 0.00 0.00 0.00 0.00 0.00 0.00 0.00 0.00 0.00 0.00 0.00 0.00 0.00 0.00
0.25 0.32 0.34 0.38 0.25 0.13 0.06 0.02 0.00 0.00 0.00 0.00 0.00 0.00 0.00 0.00 0.00 0.00 0.00 0.00 0.00 0.00 0.00 0.00 0.00 0.00 0.00 0.00 0.00 0.00 0.00 0.00 0.00 0.00 0.00 0.00 0.00 0.00 0.00 0.00 0.00 0.00 0.00 0.00 0.00 0.00 0.00 0.00 0.00
0.28 0.30 0.38 0.47 0.33 0.19 0.06 0.01 0.00 0.00 0.00 0.00 0.00 0.00 0.00 0.00 0.00 0.00 0.00 0.00 0.00 0.00 0.00 0.00 0.00 0.00 0.00 0.00 0.00 0.00 0.00 0.00 0.00 0.00 0.00 0.00 0.00 0.00 0.00 0.00 0.00 0.00 0.00 0.00 0.00 0.00 0.00 0.00 0.00
0.25 0.33 0.40 0.38 0.24 0.15 0.05 0.01 0.00 0.00 0.00 0.00 0.00 0.00 0.00 0.00 0.00 0.00 0.00 0.00 0.00 0.00 0.00 0.00 0.00 0.00 0.00 0.00 0.00 0.00 0.00 0.00 0.00 0.00 0.00 0.00 0.00 0.00 0.00 0.00 0.00 0.00 0.00 0.00 0.00 0.00 0.00 0.00 0.00
0.26 0.26 0.31 0.34 0.21 0.09 0.03 0.00 0.00 0.00 0.00 0.00 0.00 0.00 0.00 0.00 0.00 0.00 0.00 0.00 0.00 0.00 0.00 0.00 0.00 0.00 0.00 0.00 0.00 0.00 0.00 0.00 0.00 0.00 0.00 0.00 0.00 0.00 0.00 0.00 0.00 0.00 0.00 0.00 0.00 0.00 0.00 0.00 0.00
MSLP
1012.75 1013.34 1014.14 1014.98 1015.71 1016.18 1016.29 1016.00 1015.39 1014.55 1013.65 1012.84 1012.23 1011.88 1011.75 1011.79 1011.90 1011.97 1011.96 1011.83 1011.63 1011.43 1011.31 1011.34 1011.54 1011.89 1012.33 1012.78 1013.17 1013.44 1013.58 1013.60 1013.57 1013.55 1013.58 1013.70 1013.90 1014.13 1014.36 1014.53 1014.61 1014.59 1014.50 1014.36 1014.23 1014.13 1014.09 1014.09 1014.14
1013.33 1014.07 1014.95 1015.78 1016.41 1016.69 1016.56 1016.01 1015.15 1014.11 1013.06 1012.17 1011.53 1011.18 1011.08 1011.16 1011.30 1011.40 1011.40 1011.30 1011.13 1010.98 1010.92 1011.01 1011.29 1011.71 1012.22 1012.72 1013.15 1013.45 1013.61 1013.65 1013.62 1013.60 1013.63 1013.73 1013.91 1014.12 1014.34 1014.50 1014.59 1014.61 1014.56 1014.47 1014.38 1014.32 1014.29 1014.29 1014.31
1013.94 1014.78 1015.67 1016.44 1016.91 1016.98 1016.61 1015.84 1014.78 1013.59 1012.46 1011.53 1010.90 1010.58 1010.52 1010.62 1010.78 1010.89 1010.91 1010.82 1010.69 1010.58 1010.58 1010.74 1011.07 1011.55 1012.10 1012.64 1013.09 1013.41 1013.57 1013.63 1013.61 1013.59 1013.62 1013.71 1013.87 1014.07 1014.27 1014.43 1014.53 1014.57 1014.56 1014.52 1014.48 1014.45 1014.45 1014.45 1014.44
1014.52 1015.39 1016.23 1016.87 1017.16 1017.02 1016.45 1015.49 1014.30 1013.04 1011.89 1010.99 1010.41 1010.14 1010.13 1010.26 1010.44 1010.55 1010.57 1010.50 1010.39 1010.33 1010.37 1010.58 1010.96 1011.46 1012.03 1012.57 1013.01 1013.32 1013.49 1013.55 1013.54 1013.54 1013.57 1013.67 1013.82 1014.01 1014.20 1014.35 1014.45 1014.50 1014.52 1014.52 1014.51 1014.51 1014.52 1014.53 1014.52
1015.02 1015.84 1016.56 1017.04 1017.14 1016.81 1016.07 1015.01 1013.77 1012.52 1011.43 1010.62 1010.12 1009.93 1009.96 1010.12 1010.30 1010.41 1010.43 1010.36 1010.28 1010.25 1010.34 1010.57 1010.97 1011.47 1012.01 1012.52 1012.93 1013.21 1013.37 1013.43 1013.44 1013.46 1013.52 1013.64 1013.79 1013.97 1014.14 1014.28 1014.37 1014.42 1014.44 1014.45 1014.47 1014.48 1014.51 1014.51 1014.50
1015.38 1016.09 1016.65 1016.93 1016.84 1016.36 1015.52 1014.43 1013.23 1012.07 1011.11 1010.43 1010.05 1009.93 1010.01 1010.18 1010.35 1010.44 1010.45 1010.40 1010.33 1010.33 1010.45 1010.70 1011.09 1011.56 1012.06 1012.51 1012.86 1013.10 1013.24 1013.30 1013.34 1013.39 1013.49 1013.63 1013.80 1013.98 1014.13 1014.25 1014.31 1014.34 1014.34 1014.35 1014.35 1014.37 1014.39 1014.40 1014.39
1015.58 1016.13 1016.49 1016.58 1016.33 1015.74 1014.86 1013.81 1012.72 1011.72 1010.93 1010.40 1010.14 1010.11 1010.22 1010.38 1010.52 1010.58 1010.57 1010.51 1010.47 1010.50 1010.63 1010.89 1011.26 1011.69 1012.12 1012.50 1012.78 1012.98 1013.09 1013.16 1013.23 1013.33 1013.47 1013.64 1013.84 1014.01 1014.15 1014.24 1014.26 1014.25 1014.23 1014.20 1014.19 1014.20 1014.21 1014.22 1014.20
1015.63 1015.99 1016.15 1016.05 1015.66 1015.01 1014.15 1013.20 1012.26 1011.45 1010.85 1010.48 1010.34 1010.36 1010.47 1010.60 1010.69 1010.71 1010.67 1010.61 1010.58 1010.63 1010.79 1011.05 1011.39 1011.78 1012.14 1012.45 1012.67 1012.82 1012.92 1013.01 1013.11 1013.26 1013.45 1013.66 1013.87 1014.05 1014.17 1014.22 1014.21 1014.16 1014.10 1014.04 1014.00 1013.99 1013.99 1013.99 1013.97
1015.56 1015.72 1015.69 1015.42 1014.93 1014.25 1013.45 1012.63 1011.87 1011.26 1010.83 1010.60 1010.54 1010.58 1010.67 1010.75 1010.77 1010.73 1010.65 1010.58 1010.57 1010.64 1010.81 1011.07 1011.40 1011.74 1012.06 1012.31 1012.49 1012.62 1012.72 1012.83 1012.97 1013.16 1013.40 1013.64 1013.87 1014.05 1014.16 1014.18 1014.14 1014.06 1013.97 1013.89 1013.83 1013.80 1013.79 1013.77 1013.74
1015.43 1015.40 1015.19 1014.79 1014.22 1013.54 1012.82 1012.13 1011.54 1011.10 1010.82 1010.70 1010.68 1010.71 1010.74 1010.74 1010.68 1010.58 1010.46 1010.38 1010.36 1010.45 1010.64 1010.91 1011.23 1011.55 1011.83 1012.06 1012.22 1012.35 1012.47 1012.61 1012.79 1013.03 1013.30 1013.57 1013.81 1013.99 1014.09 1014.10 1014.05 1013.96 1013.85 1013.77 1013.71 1013.67 1013.64 1013.62 1013.57
1015.28 1015.09 1014.73 1014.21 1013.60 1012.93 1012.29 1011.72 1011.27 1010.96 1010.79 1010.71 1010.70 1010.69 1010.65 1010.56 1010.41 1010.24 1010.09 1009.98 1009.97 1010.07 1010.28 1010.55 1010.87 1011.19 1011.46 1011.69 1011.86 1012.01 1012.17 1012.35 1012.58 1012.86 1013.15 1013.44 1013.69 1013.88 1013.97 1013.99 1013.95 1013.87 1013.79 1013.71 1013.67 1013.63 1013.60 1013.55 1013.48
1015.17 1014.84 1014.36 1013.76 1013.11 1012.47 1011.89 1011.41 1011.05 1010.82 1010.69 1010.63 1010.58 1010.52 1010.40 1010.23 1010.01 1009.78 1009.59 1009.47 1009.46 1009.56 1009.77 1010.05 1010.37 1010.69 1010.98 1011.24 1011.45 1011.66 1011.86 1012.10 1012.38 1012.68 1013.00 1013.30 1013.55 1013.74 1013.85 1013.89 1013.88 1013.84 1013.80 1013.76 1013.74 1013.72 1013.68 1013.62 1013.51
1015.11 1014.68 1014.12 1013.47 1012.81 1012.18 1011.63 1011.20 1010.88 1010.68 1010.55 1010.46 1010.36 1010.23 1010.05 1009.81 1009.55 1009.29 1009.07 1008.94 1008.92 1009.01 1009.21 1009.49 1009.81 1010.15 1010.47 1010.77 1011.06 1011.33 1011.61 1011.90 1012.22 1012.56 1012.88 1013.18 1013.44 1013.63 1013.76 1013.84 1013.88 1013.90 1013.92 1013.93 1013.95 1013.94 1013.89 1013.80 1013.65
1015.12 1014.62 1014.01 1013.34 1012.67 1012.05 1011.52 1011.09 1010.77 1010.54 1010.37 1010.22 1010.07 1009.89 1009.66 1009.40 1009.12 1008.86 1008.64 1008.50 1008.46 1008.53 1008.71 1008.97 1009.29 1009.65 1010.01 1010.38 1010.74 1011.10 1011.46 1011.82 1012.19 1012.54 1012.88 1013.18 1013.43 1013.63 1013.78 1013.90 1014.00 1014.09 1014.17 1014.24 1014.28 1014.29 1014.22 1014.09 1013.89
1015.15 1014.64 1014.03 1013.36 1012.71 1012.09 1011.54 1011.08 1010.71 1010.41 1010.16 1009.95 1009.75 1009.54 1009.30 1009.06 1008.81 1008.57 1008.37 1008.23 1008.18 1008.22 1008.36 1008.59 1008.90 1009.27 1009.68 1010.12 1010.57 1011.02 1011.47 1011.90 1012.32 1012.69 1013.03 1013.32 1013.57 1013.78 1013.96 1014.12 1014.27 1014.42 1014.56 1014.67 1014.74 1014.73 1014.65 1014.48 1014.22
1015.19 1014.71 1014.13 1013.51 1012.88 1012.26 1011.68 1011.16 1010.69 1010.29 1009.95 1009.66 1009.41 1009.19 1009.00 1008.81 1008.62 1008.45 1008.29 1008.17 1008.11 1008.12 1008.21 1008.41 1008.69 1009.07 1009.53 1010.04 1010.57 1011.13 1011.66 1012.17 1012.62 1013.02 1013.36 1013.64 1013.88 1014.10 1014.30 1014.49 1014.69 1014.88 1015.06 1015.19 1015.26 1015.25 1015.13 1014.92 1014.61
1015.22 1014.80 1014.30 1013.75 1013.16 1012.54 1011.91 1011.29 1010.70 1010.16 1009.71 1009.34 1009.06 1008.86 1008.72 1008.63 1008.55 1008.46 1008.38 1008.29 1008.22 1008.20 1008.25 1008.40 1008.67 1009.06 1009.55 1010.13 1010.76 1011.40 1012.02 1012.59 1013.09 1013.50 1013.84 1014.12 1014.35 1014.57 1014.78 1014.99 1015.22 1015.43 1015.63 1015.77 1015.83 1015.79 1015.65 1015.40 1015.06
1015.20 1014.89 1014.51 1014.05 1013.51 1012.88 1012.18 1011.44 1010.70 1010.01 1009.42 1008.96 1008.66 1008.49 1008.44 1008.46 1008.51 1008.55 1008.55 1008.52 1008.46 1008.42 1008.43 1008.55 1008.80 1009.19 1009.73 1010.37 1011.08 1011.80 1012.50 1013.13 1013.66 1014.09 1014.43 1014.70 1014.92 1015.14 1015.35 1015.57 1015.81 1016.03 1016.22 1016.35 1016.40 1016.34 1016.16 1015.89 1015.53
1015.14 1014.97 1014.73 1014.38 1013.88 1013.22 1012.43 1011.55 1010.63 1009.77 1009.04 1008.49 1008.16 1008.04 1008.09 1008.24 1008.44 1008.62 1008.73 1008.76 1008.73 1008.69 1008.69 1008.78 1009.03 1009.44 1010.01 1010.71 1011.49 1012.29 1013.04 1013.72 1014.27 1014.71 1015.05 1015.31 1015.53 1015.74 1015.95 1016.18 1016.41 1016.63 1016.80 1016.91 1016.93 1016.85 1016.66 1016.38 1016.03
1015.03 1015.03 1014.93 1014.67 1014.21 1013.52 1012.61 1011.56 1010.46 1009.41 1008.53 1007.89 1007.54 1007.46 1007.61 1007.91 1008.27 1008.60 1008.83 1008.95 1008.98 1008.96 1008.96 1009.06 1009.31 1009.74 1010.35 1011.10 1011.94 1012.79 1013.59 1014.29 1014.86 1015.31 1015.64 1015.90 1016.11 1016.31 1016.52 1016.75 1016.97 1017.17 1017.32 1017.41 1017.40 1017.30 1017.12 1016.85 1016.53
1014.88 1015.03 1015.06 1014.88 1014.43 1013.67 1012.63 1011.41 1010.10 1008.87 1007.84 1007.12 1006.75 1006.73 1006.99 1007.44 1007.96 1008.44 1008.82 1009.04 1009.15 1009.18 1009.21 1009.33 1009.61 1010.07 1010.72 1011.51 1012.39 1013.27 1014.10 1014.81 1015.39 1015.83 1016.15 1016.40 1016.62 1016.82 1017.03 1017.25 1017.46 1017.64 1017.77 1017.82 1017.80 1017.69 1017.51 1017.28 1017.00
1014.66 1014.94 1015.07 1014.93 1014.45 1013.60 1012.42 1011.01 1009.52 1008.12 1006.98 1006.19 1005.83 1005.87 1006.25 1006.85 1007.53 1008.18 1008.69 1009.04 1009.24 1009.35 1009.44 1009.61 1009.93 1010.43 1011.11 1011.93 1012.83 1013.72 1014.55 1015.26 1015.82 1016.25 1016.57 1016.82 1017.03 1017.24 1017.45 1017.67 1017.86 1018.02 1018.12 1018.15 1018.11 1018.00 1017.83 1017.63 1017.41
1014.34 1014.70 1014.87 1014.73 1014.19 1013.23 1011.91 1010.34 1008.70 1007.18 1005.96 1005.15 1004.82 1004.95 1005.45 1006.20 1007.05 1007.85 1008.52 1009.00 1009.31 1009.51 1009.68 1009.91 1010.28 1010.82 1011.53 1012.37 1013.26 1014.15 1014.96 1015.65 1016.19 1016.60 1016.91 1017.16 1017.38 1017.59 1017.80 1018.01 1018.20 1018.33 1018.40 1018.40 1018.33 1018.21 1018.06 1017.89 1017.72
1013.86 1014.25 1014.40 1014.21 1013.59 1012.52 1011.08 1009.39 1007.66 1006.08 1004.84 1004.06 1003.80 1004.04 1004.68 1005.58 1006.59 1007.55 1008.35 1008.97 1009.39 1009.69 1009.95 1010.26 1010.68 1011.26 1011.99 1012.83 1013.71 1014.57 1015.35 1015.99 1016.51 1016.90 1017.20 1017.44 1017.66 1017.88 1018.10 1018.30 1018.47 1018.57 1018.60 1018.56 1018.46 1018.32 1018.17 1018.03 1017.88
1013.16 1013.51 1013.60 1013.33 1012.61 1011.45 1009.93 1008.20 1006.44 1004.88 1003.70 1003.01 1002.88 1003.25 1004.04 1005.08 1006.23 1007.33 1008.26 1009.00 1009.54 1009.94 1010.29 1010.67 1011.15 1011.76 1012.50 1013.33 1014.18 1014.99 1015.72 1016.33 1016.80 1017.17 1017.45 1017.70 1017.92 1018.15 1018.36 1018.55 1018.68 1018.75 1018.73 1018.64 1018.50 1018.33 1018.17 1018.02 1017.90
1012.19 1012.45 1012.44 1012.07 1011.28 1010.06 1008.53 1006.82 1005.14 1003.68 1002.63 1002.10 1002.12 1002.65 1003.58 1004.76 1006.03 1007.24 1008.28 1009.12 1009.77 1010.27 1010.70 1011.15 1011.68 1012.32 1013.06 1013.86 1014.66 1015.43 1016.10 1016.65 1017.09 1017.43 1017.70 1017.94 1018.17 1018.39 1018.59 1018.75 1018.85 1018.87 1018.80 1018.65 1018.45 1018.24 1018.05 1017.88 1017.76
1010.94 1011.07 1010.95 1010.49 1009.64 1008.43 1006.96 1005.36 1003.83 1002.57 1001.73 1001.39 1001.59 1002.28 1003.34 1004.63 1005.99 1007.28 1008.40 1009.32 1010.05 1010.64 1011.15 1011.67 1012.24 1012.90 1013.63 1014.40 1015.16 1015.86 1016.47 1016.97 1017.37 1017.68 1017.94 1018.17 1018.39 1018.60 1018.78 1018.91 1018.96 1018.92 1018.79 1018.58 1018.33 1018.06 1017.82 1017.63 1017.49
1009.43 1009.43 1009.20 1008.67 1007.82 1006.67 1005.33 1003.93 1002.63 1001.62 1001.03 1000.92 1001.31 1002.14 1003.31 1004.66 1006.07 1007.40 1008.57 1009.55 1010.35 1011.01 1011.60 1012.18 1012.80 1013.47 1014.19 1014.92 1015.63 1016.27 1016.83 1017.28 1017.63 1017.92 1018.16 1018.38 1018.59 1018.77 1018.93 1019.01 1019.01 1018.91 1018.71 1018.44 1018.13 1017.81 1017.52 1017.30 1017.12
1007.76 1007.62 1007.30 1006.74 1005.93 1004.91 1003.76 1002.62 1001.61 1000.89 1000.57 1000.69 1001.25 1002.19 1003.42 1004.80 1006.21 1007.54 1008.73 1009.74 1010.60 1011.33 1011.99 1012.63 1013.29 1013.98 1014.69 1015.39 1016.05 1016.65 1017.15 1017.55 1017.87 1018.13 1018.36 1018.56 1018.75 1018.90 1019.01 1019.05 1018.99 1018.83 1018.57 1018.24 1017.88 1017.51 1017.18 1016.92 1016.71
1006.04 1005.79 1005.40 1004.85 1004.12 1003.27 1002.36 1001.50 1000.80 1000.38 1000.32 1000.64 1001.33 1002.34 1003.58 1004.94 1006.32 1007.63 1008.81 1009.84 1010.74 1011.53 1012.27 1012.98 1013.69 1014.41 1015.12 1015.80 1016.42 1016.97 1017.42 1017.79 1018.08 1018.32 1018.52 1018.71 1018.86 1018.99 1019.05 1019.03 1018.92 1018.70 1018.39 1018.01 1017.60 1017.20 1016.83 1016.53 1016.28
Thickness
5718 5723 5725 5716 5696 5678 5682 5697 5712 5719 5731 5746 5755 5752 5743 5739 5736 5736 5756 5762 5761 5757 5754 5751 5748 5745 5742 5739 5737 5735 5733 5732 5731 5729 5728 5727 5726 5725 5724 5723 5722 5722 5722 5721 5721 5721 5722 5722 5721
5711 5715 5710 5696 5675 5666 5676 5697 5710 5722 5735 5746 5752 5749 5740 5738 5747 5750 5753 5757 5758 5755 5751 5748 5745 5742 5739 5737 5734 5733 5731 5730 5728 5727 5725 5724 5723 5722 5721 5720 5719 5718 5717 5717 5716 5716 5716 5716 5716
5705 5706 5690 5677 5669 5666 5682 5703 5711 5727 5738 5741 5742 5741 5736 5736 5744 5750 5754 5754 5753 5751 5748 5745 5742 5740 5737 5734 5732 5730 5729 5728 5726 5724 5723 5721 5720 5719 5718 5716 5715 5714 5713 5713 5712 5712 5711 5711 5711
5693 5686 5677 5666 5669 5680 5690 5700 5708 5719 5731 5736 5736 5729 5733 5742 5747 5752 5753 5751 5748 5746 5744 5742 5739 5737 5734 5732 5730 5728 5727 5725 5724 5722 5720 5719 5717 5716 5715 5713 5711 5710 5709 5709 5708 5708 5708 5707 5707
5682 5669 5661 5657 5668 5684 5694 5702 5707 5714 5722 5727 5728 5722 5724 5739 5748 5750 5748 5747 5743 5741 5740 5738 5736 5734 5732 5730 5728 5726 5725 5723 5721 5719 5718 5716 5715 5714 5712 5710 5709 5707 5706 5705 5705 5705 5704 5704 5703
5663 5655 5645 5648 5665 5682 5692 5703 5709 5713 5718 5722 5722 5716 5720 5736 5740 5742 5744 5742 5741 5739 5737 5735 5733 5732 5730 5728 5726 5724 5723 5721 5719 5717 5716 5714 5713 5712 5710 5708 5706 5705 5704 5703 5703 5702 5701 5701 5700
5653 5645 5642 5651 5661 5672 5690 5705 5707 5711 5713 5718 5722 5711 5716 5729 5736 5740 5740 5739 5737 5736 5734 5732 5730 5729 5727 5726 5724 5722 5721 5719 5717 5715 5713 5712 5711 5709 5708 5706 5704 5703 5701 5700 5699 5698 5698 5697 5697
5654 5644 5644 5650 5657 5670 5688 5701 5708 5711 5713 5723 5723 5707 5708 5725 5734 5735 5735 5733 5732 5732 5731 5729 5727 5726 5725 5723 5722 5720 5718 5717 5715 5713 5711 5709 5708 5707 5705 5703 5701 5699 5698 5697 5696 5695 5694 5693 5693
5651 5635 5640 5651 5659 5671 5686 5692 5703 5714 5714 5718 5720 5717 5721 5728 5729 5726 5725 5724 5725 5726 5726 5726 5725 5723 5722 5721 5719 5718 5716 5714 5713 5710 5708 5707 5705 5703 5701 5700 5698 5696 5694 5693 5692 5691 5690 5689 5689
5638 5634 5649 5662 5669 5674 5679 5682 5691 5699 5702 5706 5710 5715 5720 5721 5721 5720 5720 5720 5720 5721 5723 5724 5723 5722 5720 5718 5717 5716 5714 5713 5711 5709 5706 5704 5702 5700 5698 5696 5695 5693 5691 5689 5688 5687 5686 5685 5684
5635 5638 5652 5661 5669 5672 5671 5674 5685 5688 5690 5699 5702 5705 5709 5713 5714 5715 5718 5721 5723 5724 5723 5723 5721 5720 5718 5717 5715 5714 5712 5711 5708 5706 5705 5702 5699 5696 5694 5692 5690 5688 5686 5685 5683 5682 5681 5680 5679
5629 5639 5648 5656 5662 5664 5665 5668 5673 5681 5691 5703 5705 5705 5705 5707 5709 5712 5715 5718 5721 5722 5723 5723 5721 5719 5717 5715 5714 5712 5710 5709 5706 5704 5702 5699 5695 5692 5689 5687 5685 5684 5682 5680 5678 5676 5675 5673 5672
5620 5630 5640 5648 5652 5656 5659 5660 5665 5676 5691 5699 5701 5701 5700 5703 5707 5713 5717 5719 5720 5721 5723 5723 5722 5719 5716 5713 5712 5710 5709 5707 5705 5702 5699 5695 5692 5688 5685 5682 5679 5677 5675 5673 5671 5669 5668 5666 5665
5616 5623 5630 5638 5643 5647 5648 5656 5660 5673 5685 5690 5695 5697 5698 5700 5705 5708 5712 5714 5718 5720 5721 5722 5720 5718 5716 5712 5710 5709 5707 5704 5701 5698 5695 5691 5687 5683 5679 5675 5672 5669 5668 5666 5663 5661 5659 5657 5656
5607 5609 5617 5628 5633 5638 5638 5645 5661 5673 5678 5681 5687 5691 5694 5698 5702 5705 5709 5712 5715 5718 5719 5718 5718 5716 5713 5710 5708 5706 5703 5700 5696 5692 5689 5685 5681 5676 5671 5667 5663 5660 5659 5657 5655 5652 5650 5648 5646
5593 5595 5602 5621 5627 5631 5623 5639 5661 5670 5671 5673 5680 5684 5687 5694 5698 5703 5707 5709 5712 5713 5714 5715 5715 5711 5708 5705 5702 5700 5697 5693 5689 5685 5681 5677 5672 5667 5663 5658 5654 5651 5649 5647 5645 5641 5639 5636 5634
5577 5581 5592 5606 5620 5622 5621 5636 5655 5664 5665 5667 5673 5677 5681 5687 5693 5698 5702 5705 5707 5708 5709 5709 5708 5705 5701 5698 5694 5690 5687 5683 5678 5675 5671 5667 5663 5658 5653 5648 5644 5641 5639 5635 5633 5629 5626 5623 5622
5567 5571 5582 5591 5606 5609 5614 5632 5644 5655 5658 5661 5667 5671 5675 5682 5689 5694 5697 5700 5701 5702 5702 5702 5701 5698 5695 5691 5685 5680 5675 5670 5667 5664 5660 5657 5652 5647 5643 5637 5633 5630 5627 5623 5619 5616 5614 5611 5610
5557 5561 5566 5577 5588 5591 5603 5620 5633 5644 5649 5654 5660 5664 5669 5677 5684 5687 5690 5692 5693 5694 5694 5694 5693 5691 5689 5684 5677 5671 5663 5659 5655 5652 5649 5645 5641 5636 5631 5626 5622 5618 5613 5608 5605 5603 5600 5597 5596
5542 5545 5554 5564 5573 5578 5589 5607 5626 5639 5648 5655 5660 5663 5665 5668 5673 5678 5682 5684 5686 5686 5686 5685 5685 5683 5681 5677 5672 5664 5656 5649 5644 5641 5637 5633 5629 5624 5619 5614 5609 5604 5600 5596 5592 5588 5585 5581 5580
5532 5535 5540 5545 5554 5564 5572 5592 5616 5636 5646 5654 5662 5666 5665 5669 5672 5672 5674 5676 5677 5678 5679 5679 5676 5674 5671 5668 5663 5655 5648 5640 5633 5628 5624 5620 5617 5612 5607 5602 5597 5592 5587 5582 5578 5574 5571 5566 5564
5525 5534 5533 5534 5532 5544 5560 5575 5611 5628 5636 5648 5658 5662 5664 5669 5669 5669 5668 5669 5670 5671 5671 5670 5668 5665 5662 5660 5655 5649 5642 5631 5623 5617 5612 5608 5604 5599 5595 5589 5584 5579 5574 5569 5566 5562 5558 5554 5550
5518 5524 5522 5524 5523 5529 5547 5557 5596 5618 5632 5650 5658 5660 5664 5667 5667 5666 5664 5663 5663 5664 5664 5661 5659 5655 5652 5649 5645 5639 5630 5622 5613 5607 5602 5596 5592 5587 5583 5577 5572 5567 5562 5558 5554 5550 5545 5541 5537
5513 5511 5511 5512 5511 5522 5551 5552 5585 5616 5642 5655 5661 5662 5663 5663 5661 5658 5656 5655 5654 5655 5655 5653 5650 5645 5642 5638 5634 5628 5620 5612 5604 5597 5591 5585 5580 5575 5571 5566 5561 5556 5551 5547 5543 5538 5533 5528 5523
5502 5498 5501 5507 5512 5534 5562 5556 5589 5630 5649 5662 5665 5664 5663 5661 5657 5653 5650 5649 5647 5647 5646 5644 5640 5634 5630 5627 5621 5616 5610 5603 5596 5588 5582 5576 5570 5564 5559 5555 5550 5545 5541 5536 5532 5526 5521 5516 5509
5505 5500 5503 5515 5525 5545 5560 5568 5604 5635 5649 5661 5665 5662 5658 5655 5653 5650 5648 5645 5642 5640 5637 5635 5630 5624 5620 5616 5609 5604 5598 5592 5585 5579 5573 5566 5560 5554 5549 5544 5539 5535 5530 5526 5520 5515 5509 5503 5495
5504 5504 5514 5514 5532 5546 5564 5585 5609 5630 5641 5650 5652 5652 5652 5650 5647 5644 5640 5637 5635 5632 5629 5626 5621 5615 5610 5605 5599 5592 5587 5581 5574 5568 5562 5556 5550 5545 5539 5534 5529 5524 5520 5515 5509 5502 5496 5489 5482
5512 5515 5509 5507 5531 5554 5570 5584 5608 5623 5633 5642 5647 5648 5646 5643 5640 5636 5633 5630 5626 5623 5619 5616 5612 5606 5600 5595 5589 5582 5575 5569 5563 5557 5551 5545 5540 5535 5529 5524 5519 5514 5509 5503 5497 5490 5484 5476 5469
5512 5513 5517 5523 5532 5559 5575 5596 5632 5639 5645 5648 5648 5647 5644 5640 5636 5632 5627 5622 5618 5614 5610 5606 5601 5596 5590 5584 5578 5571 5564 5558 5552 5546 5540 5535 5530 5525 5519 5514 5508 5502 5497 5490 5484 5477 5471 5463 5455
5528 5531 5530 5536 5551 5563 5581 5607 5639 5645 5649 5650 5645 5641 5638 5635 5631 5626 5621 5615 5611 5606 5602 5597 5592 5586 5580 5574 5567 5560 5553 5547 5541 5535 5530 5525 5519 5514 5508 5502 5496 5490 5484 5478 5471 5464 5458 5450 5442